Tracking 19145 objects as of 26-Apr-2018
HD Live streaming from Space Station
objects crossing your sky now

THORAD AGENA D DEB

Track THORAD AGENA D DEB now!
10-day predictions


NORAD ID: 4768
Int'l Code: 1970-025DN
Perigee: 985.5 km
Apogee: 1,030.1 km
Inclination: 100.2 °
Period: 105.1 minutes
Semi major axis: 7378 km
RCS: 0.064 m2 (small)
Launch date: April 8, 1970
Source: United States (US)
Launch site: AIR FORCE WESTERN TEST RANGE (AFWTR)

Note: This is SATELLITE DEBRIS
aabbcc
Your satellite tracking list
Your tracking list is empty




NASA's NSSDC Master Catalog

Two Line Element Set (TLE):
1 04768U 70025DN  18115.13448590  .00000107  00000-0  17842-3 0  9992
2 04768 100.2063 314.3896 0030191 348.7186 139.0201 13.69697955390912
Source of the keplerian elements: AFSPC